Starlink 31749

operational
NORAD ID: 59631 Int'l Des: 2024-082 Owner: SPXS Country: US Constellation: starlink
LEOCIRCULAR

关于 Starlink 31749

正在加载描述...

实时位置

正在加载3D地球...

即将过境

高度历史

Altitude vs Time

uPlot chart will show altitude changes over time

两行轨道根数

1 59631U 24082A 25354.36168895 -.00002302 00000-0 -74140-4 0 9994
2 59631 42.9986 227.4796 0000961 270.0820 89.9922 15.27582297 92880
Epoch: Dec 20, 2025 • Age: 15 hours

当前状态

高度 485.8 km
速度 7.63 km/s
星下点 38.55°N, 93.49°W
发射日期 May 3, 2024
运行时间 1.6 years
类型 internet

技术详情

分类 Payload
质量 730.00 kg
干质量 700.00 kg
总质量 730.00 kg
长度 0.30 m
直径 4.10 m
跨度 29.00 m
形状 Box + pan
制造商 SPXS
平台类型 Starlink V2M
阶段状态 In Orbit
所有者/国家 SPXS/US

大型星座

Loading constellations...